QPF
0.06 0.08 0.08 0.07 0.07 0.06 0.08 0.08 0.08 0.10 0.10 0.09 0.08 0.07 0.05 0.03 0.04 0.04 0.03 0.03 0.03 0.03 0.04 0.06 0.08 0.08 0.09 0.09 0.07 0.06 0.08 0.10 0.08 0.07 0.05 0.03 0.03 0.04 0.04 0.05 0.04 0.03 0.02
0.06 0.07 0.08 0.07 0.04 0.03 0.06 0.08 0.09 0.12 0.12 0.11 0.10 0.08 0.07 0.06 0.05 0.03 0.03 0.05 0.04 0.03 0.05 0.06 0.08 0.10 0.10 0.09 0.08 0.08 0.10 0.10 0.10 0.09 0.08 0.07 0.05 0.04 0.04 0.04 0.05 0.04 0.03
0.08 0.09 0.08 0.07 0.05 0.04 0.05 0.07 0.07 0.07 0.07 0.07 0.08 0.08 0.07 0.06 0.05 0.05 0.05 0.05 0.04 0.03 0.04 0.05 0.05 0.07 0.08 0.09 0.10 0.10 0.10 0.10 0.10 0.10 0.09 0.08 0.06 0.05 0.04 0.04 0.04 0.04 0.03
0.08 0.10 0.09 0.10 0.09 0.08 0.06 0.06 0.07 0.07 0.08 0.08 0.07 0.07 0.05 0.06 0.05 0.05 0.05 0.05 0.06 0.04 0.05 0.05 0.04 0.07 0.12 0.14 0.14 0.13 0.12 0.10 0.09 0.09 0.10 0.07 0.05 0.04 0.05 0.04 0.04 0.03 0.03
0.07 0.08 0.11 0.12 0.09 0.10 0.09 0.06 0.06 0.06 0.08 0.09 0.06 0.07 0.05 0.05 0.05 0.06 0.07 0.06 0.06 0.06 0.07 0.05 0.04 0.07 0.12 0.15 0.16 0.13 0.11 0.10 0.10 0.10 0.08 0.07 0.05 0.04 0.04 0.04 0.04 0.03 0.03
0.11 0.11 0.12 0.11 0.09 0.11 0.11 0.07 0.06 0.05 0.06 0.07 0.05 0.04 0.05 0.04 0.05 0.08 0.07 0.04 0.03 0.03 0.05 0.06 0.08 0.05 0.06 0.10 0.12 0.12 0.13 0.13 0.13 0.11 0.11 0.11 0.08 0.06 0.06 0.05 0.05 0.03 0.03
0.13 0.13 0.13 0.10 0.08 0.10 0.09 0.06 0.06 0.05 0.05 0.05 0.05 0.04 0.04 0.03 0.02 0.03 0.03 0.04 0.03 0.02 0.03 0.04 0.07 0.06 0.06 0.06 0.07 0.09 0.10 0.10 0.09 0.08 0.10 0.13 0.12 0.09 0.06 0.06 0.07 0.06 0.06
0.13 0.12 0.10 0.08 0.07 0.07 0.08 0.08 0.06 0.05 0.04 0.04 0.07 0.06 0.05 0.03 0.02 0.01 0.03 0.04 0.04 0.02 0.03 0.02 0.04 0.05 0.05 0.06 0.06 0.06 0.07 0.06 0.06 0.06 0.06 0.08 0.11 0.11 0.08 0.06 0.06 0.06 0.07
0.08 0.06 0.06 0.06 0.06 0.05 0.07 0.07 0.07 0.06 0.06 0.05 0.05 0.06 0.07 0.05 0.03 0.03 0.03 0.06 0.07 0.05 0.04 0.04 0.05 0.06 0.06 0.07 0.07 0.05 0.06 0.08 0.07 0.07 0.07 0.07 0.08 0.09 0.09 0.09 0.10 0.10 0.09
0.04 0.03 0.04 0.04 0.04 0.04 0.06 0.05 0.07 0.09 0.09 0.07 0.05 0.04 0.06 0.06 0.05 0.04 0.05 0.07 0.10 0.10 0.09 0.07 0.06 0.06 0.05 0.05 0.06 0.05 0.04 0.06 0.07 0.08 0.07 0.07 0.06 0.07 0.08 0.11 0.12 0.08 0.06
0.03 0.03 0.03 0.04 0.04 0.04 0.05 0.05 0.06 0.07 0.08 0.08 0.06 0.05 0.05 0.06 0.06 0.05 0.05 0.05 0.08 0.09 0.09 0.08 0.06 0.04 0.04 0.04 0.05 0.06 0.06 0.05 0.06 0.06 0.06 0.06 0.07 0.08 0.09 0.09 0.10 0.08 0.08
0.03 0.03 0.03 0.03 0.04 0.03 0.04 0.05 0.05 0.05 0.07 0.08 0.08 0.06 0.07 0.06 0.07 0.06 0.06 0.06 0.06 0.05 0.06 0.05 0.05 0.05 0.04 0.04 0.04 0.05 0.07 0.07 0.06 0.06 0.05 0.05 0.05 0.06 0.07 0.06 0.08 0.09 0.08
0.02 0.02 0.02 0.03 0.02 0.02 0.04 0.04 0.05 0.05 0.06 0.07 0.07 0.07 0.07 0.07 0.08 0.10 0.09 0.07 0.05 0.04 0.04 0.03 0.03 0.04 0.05 0.05 0.05 0.04 0.06 0.07 0.07 0.06 0.06 0.07 0.07 0.07 0.09 0.08 0.07 0.09 0.08
0.02 0.02 0.02 0.03 0.02 0.01 0.02 0.03 0.03 0.04 0.05 0.06 0.07 0.08 0.08 0.08 0.08 0.08 0.06 0.05 0.06 0.05 0.04 0.03 0.02 0.04 0.04 0.05 0.05 0.04 0.05 0.07 0.10 0.11 0.11 0.12 0.12 0.11 0.12 0.11 0.09 0.11 0.11
0.01 0.01 0.02 0.02 0.02 0.01 0.03 0.04 0.04 0.05 0.07 0.07 0.06 0.06 0.06 0.06 0.05 0.04 0.04 0.05 0.07 0.06 0.04 0.03 0.02 0.04 0.04 0.04 0.05 0.05 0.05 0.06 0.09 0.10 0.10 0.10 0.10 0.10 0.09 0.09 0.08 0.08 0.09
0.01 0.01 0.01 0.02 0.01 0.02 0.04 0.05 0.04 0.04 0.06 0.06 0.04 0.04 0.04 0.04 0.04 0.03 0.02 0.03 0.05 0.06 0.04 0.04 0.03 0.03 0.04 0.03 0.04 0.05 0.06 0.07 0.07 0.08 0.08 0.08 0.10 0.11 0.10 0.09 0.08 0.07 0.06
0.01 0.01 0.01 0.01 0.01 0.02 0.03 0.04 0.03 0.03 0.03 0.03 0.02 0.03 0.03 0.03 0.04 0.03 0.02 0.02 0.04 0.04 0.03 0.03 0.02 0.02 0.03 0.05 0.06 0.07 0.06 0.06 0.06 0.07 0.08 0.09 0.08 0.08 0.09 0.09 0.09 0.09 0.08
0.01 0.01 0.01 0.01 0.01 0.02 0.03 0.03 0.02 0.02 0.02 0.03 0.04 0.04 0.03 0.03 0.03 0.02 0.02 0.02 0.03 0.03 0.03 0.03 0.03 0.03 0.04 0.06 0.08 0.08 0.06 0.05 0.05 0.06 0.08 0.08 0.09 0.09 0.09 0.09 0.09 0.10 0.09
0.02 0.01 0.01 0.01 0.01 0.01 0.01 0.01 0.02 0.03 0.02 0.03 0.03 0.03 0.03 0.03 0.03 0.02 0.02 0.03 0.02 0.02 0.02 0.02 0.03 0.04 0.04 0.05 0.06 0.08 0.07 0.06 0.05 0.06 0.08 0.09 0.08 0.08 0.07 0.07 0.07 0.08 0.08
0.02 0.02 0.01 0.01 0.01 0.01 0.01 0.01 0.01 0.02 0.02 0.02 0.02 0.02 0.02 0.02 0.02 0.02 0.02 0.02 0.03 0.03 0.03 0.02 0.03 0.04 0.04 0.05 0.06 0.06 0.05 0.05 0.05 0.05 0.05 0.04 0.04 0.04 0.04 0.05 0.06 0.06 0.06
0.06 0.05 0.02 0.01 0.01 0.01 0.01 0.01 0.01 0.02 0.02 0.02 0.01 0.01 0.02 0.02 0.02 0.02 0.01 0.03 0.04 0.03 0.02 0.03 0.04 0.05 0.06 0.05 0.05 0.04 0.04 0.04 0.05 0.05 0.05 0.04 0.03 0.03 0.03 0.03 0.04 0.06 0.09
0.09 0.06 0.03 0.02 0.02 0.01 0.01 0.01 0.01 0.01 0.01 0.01 0.01 0.01 0.01 0.02 0.01 0.01 0.01 0.02 0.03 0.03 0.04 0.04 0.04 0.05 0.05 0.04 0.04 0.04 0.03 0.04 0.04 0.05 0.05 0.04 0.03 0.04 0.05 0.06 0.04 0.03 0.04
0.05 0.04 0.03 0.02 0.02 0.02 0.01 0.01 0.01 0.01 0.01 0.01 0.02 0.02 0.01 0.01 0.01 0.01 0.01 0.02 0.02 0.01 0.02 0.02 0.02 0.03 0.03 0.03 0.04 0.03 0.03 0.03 0.04 0.04 0.04 0.04 0.04 0.04 0.05 0.07 0.06 0.05 0.05
0.08 0.05 0.03 0.02 0.02 0.01 0.02 0.02 0.02 0.02 0.01 0.01 0.01 0.01 0.02 0.02 0.02 0.03 0.03 0.02 0.01 0.01 0.01 0.01 0.01 0.02 0.02 0.04 0.04 0.03 0.03 0.03 0.03 0.03 0.03 0.04 0.05 0.05 0.04 0.05 0.05 0.06 0.09
0.06 0.04 0.03 0.03 0.03 0.02 0.03 0.03 0.03 0.02 0.02 0.01 0.01 0.01 0.02 0.03 0.03 0.03 0.03 0.02 0.01 0.01 0.01 0.01 0.00 0.01 0.01 0.03 0.03 0.02 0.02 0.02 0.02 0.02 0.02 0.04 0.04 0.04 0.04 0.04 0.05 0.06 0.08
0.03 0.02 0.02 0.03 0.02 0.02 0.02 0.02 0.02 0.01 0.01 0.01 0.02 0.02 0.02 0.02 0.03 0.05 0.06 0.05 0.03 0.01 0.01 0.01 0.01 0.01 0.01 0.02 0.02 0.01 0.02 0.02 0.02 0.02 0.03 0.03 0.04 0.04 0.03 0.03 0.03 0.04 0.05
MSLP
1015.41 1015.44 1015.48 1015.56 1015.68 1015.85 1016.07 1016.33 1016.61 1016.90 1017.17 1017.40 1017.57 1017.69 1017.76 1017.78 1017.77 1017.72 1017.66 1017.57 1017.45 1017.30 1017.12 1016.92 1016.70 1016.50 1016.34 1016.23 1016.19 1016.24 1016.37 1016.56 1016.82 1017.12 1017.45 1017.79 1018.13 1018.46 1018.76 1019.04 1019.27 1019.46 1019.60
1015.37 1015.42 1015.49 1015.60 1015.76 1015.97 1016.24 1016.54 1016.87 1017.20 1017.52 1017.79 1018.02 1018.18 1018.29 1018.34 1018.33 1018.28 1018.19 1018.05 1017.88 1017.67 1017.42 1017.16 1016.89 1016.63 1016.41 1016.23 1016.12 1016.08 1016.11 1016.22 1016.40 1016.64 1016.94 1017.28 1017.65 1018.03 1018.40 1018.74 1019.05 1019.29 1019.47
1015.32 1015.40 1015.51 1015.67 1015.87 1016.13 1016.43 1016.77 1017.12 1017.48 1017.82 1018.14 1018.40 1018.60 1018.74 1018.82 1018.83 1018.78 1018.67 1018.51 1018.31 1018.06 1017.78 1017.49 1017.18 1016.89 1016.61 1016.38 1016.18 1016.04 1015.96 1015.94 1016.00 1016.14 1016.37 1016.66 1017.02 1017.43 1017.85 1018.27 1018.65 1018.97 1019.22
1015.25 1015.35 1015.51 1015.72 1015.98 1016.27 1016.60 1016.95 1017.32 1017.68 1018.03 1018.35 1018.64 1018.88 1019.06 1019.17 1019.21 1019.19 1019.09 1018.93 1018.72 1018.47 1018.18 1017.88 1017.57 1017.25 1016.95 1016.66 1016.38 1016.13 1015.92 1015.76 1015.67 1015.67 1015.78 1015.98 1016.29 1016.69 1017.15 1017.63 1018.09 1018.51 1018.85
1015.14 1015.28 1015.49 1015.74 1016.04 1016.37 1016.71 1017.06 1017.41 1017.76 1018.09 1018.41 1018.71 1018.98 1019.20 1019.36 1019.46 1019.48 1019.43 1019.30 1019.12 1018.89 1018.63 1018.34 1018.04 1017.72 1017.40 1017.07 1016.72 1016.37 1016.03 1015.71 1015.46 1015.29 1015.23 1015.32 1015.54 1015.89 1016.35 1016.87 1017.41 1017.93 1018.38
1015.03 1015.19 1015.43 1015.72 1016.05 1016.40 1016.74 1017.07 1017.39 1017.70 1018.02 1018.32 1018.63 1018.92 1019.19 1019.42 1019.59 1019.68 1019.70 1019.64 1019.51 1019.33 1019.10 1018.85 1018.58 1018.28 1017.95 1017.59 1017.19 1016.75 1016.29 1015.83 1015.41 1015.06 1014.84 1014.77 1014.87 1015.14 1015.56 1016.09 1016.68 1017.29 1017.86
1014.93 1015.10 1015.36 1015.68 1016.03 1016.37 1016.70 1017.01 1017.29 1017.57 1017.84 1018.13 1018.44 1018.76 1019.08 1019.38 1019.62 1019.81 1019.91 1019.93 1019.87 1019.76 1019.59 1019.39 1019.15 1018.88 1018.57 1018.21 1017.78 1017.28 1016.73 1016.14 1015.58 1015.07 1014.68 1014.45 1014.40 1014.56 1014.91 1015.41 1016.02 1016.68 1017.34
1014.87 1015.04 1015.31 1015.64 1015.99 1016.33 1016.64 1016.92 1017.16 1017.39 1017.64 1017.90 1018.21 1018.56 1018.92 1019.28 1019.61 1019.88 1020.07 1020.18 1020.21 1020.16 1020.05 1019.91 1019.72 1019.50 1019.22 1018.87 1018.44 1017.93 1017.33 1016.67 1016.00 1015.36 1014.83 1014.44 1014.25 1014.28 1014.52 1014.95 1015.53 1016.20 1016.91
1014.89 1015.05 1015.31 1015.63 1015.97 1016.30 1016.59 1016.84 1017.05 1017.25 1017.46 1017.70 1018.01 1018.36 1018.76 1019.17 1019.57 1019.91 1020.18 1020.37 1020.47 1020.49 1020.45 1020.36 1020.23 1020.06 1019.83 1019.53 1019.14 1018.65 1018.06 1017.38 1016.66 1015.96 1015.32 1014.81 1014.49 1014.38 1014.49 1014.81 1015.32 1015.95 1016.65
1015.00 1015.14 1015.37 1015.67 1015.99 1016.30 1016.58 1016.80 1016.99 1017.16 1017.34 1017.57 1017.85 1018.21 1018.61 1019.05 1019.48 1019.88 1020.21 1020.45 1020.61 1020.70 1020.72 1020.69 1020.62 1020.52 1020.36 1020.13 1019.82 1019.40 1018.87 1018.24 1017.54 1016.82 1016.14 1015.55 1015.12 1014.88 1014.86 1015.06 1015.45 1015.99 1016.62
1015.20 1015.31 1015.51 1015.77 1016.07 1016.35 1016.61 1016.81 1016.98 1017.14 1017.30 1017.50 1017.76 1018.09 1018.48 1018.91 1019.35 1019.76 1020.12 1020.41 1020.61 1020.75 1020.82 1020.86 1020.86 1020.83 1020.76 1020.63 1020.42 1020.11 1019.69 1019.16 1018.53 1017.87 1017.20 1016.59 1016.10 1015.77 1015.62 1015.68 1015.93 1016.34 1016.86
1015.46 1015.54 1015.70 1015.92 1016.17 1016.43 1016.67 1016.87 1017.03 1017.16 1017.30 1017.48 1017.70 1017.99 1018.35 1018.74 1019.15 1019.55 1019.92 1020.22 1020.46 1020.64 1020.78 1020.87 1020.95 1021.00 1021.03 1021.01 1020.92 1020.74 1020.45 1020.06 1019.56 1019.00 1018.41 1017.83 1017.33 1016.94 1016.70 1016.63 1016.74 1017.00 1017.38
1015.77 1015.81 1015.92 1016.09 1016.30 1016.53 1016.74 1016.93 1017.09 1017.22 1017.34 1017.48 1017.66 1017.90 1018.19 1018.53 1018.90 1019.26 1019.61 1019.92 1020.19 1020.41 1020.60 1020.77 1020.92 1021.05 1021.17 1021.26 1021.29 1021.25 1021.12 1020.88 1020.54 1020.11 1019.63 1019.14 1018.67 1018.27 1017.98 1017.82 1017.80 1017.91 1018.13
1016.07 1016.08 1016.14 1016.26 1016.43 1016.62 1016.82 1017.00 1017.15 1017.27 1017.38 1017.50 1017.64 1017.81 1018.04 1018.31 1018.62 1018.94 1019.27 1019.58 1019.87 1020.13 1020.38 1020.61 1020.83 1021.04 1021.24 1021.42 1021.56 1021.64 1021.64 1021.56 1021.37 1021.10 1020.76 1020.38 1020.00 1019.64 1019.34 1019.13 1019.01 1019.00 1019.07
1016.35 1016.33 1016.35 1016.42 1016.55 1016.71 1016.90 1017.07 1017.22 1017.34 1017.44 1017.53 1017.63 1017.76 1017.92 1018.13 1018.37 1018.66 1018.96 1019.27 1019.58 1019.88 1020.18 1020.47 1020.75 1021.03 1021.29 1021.54 1021.75 1021.92 1022.03 1022.06 1022.02 1021.90 1021.70 1021.46 1021.18 1020.90 1020.64 1020.42 1020.26 1020.16 1020.12
1016.58 1016.55 1016.54 1016.58 1016.67 1016.81 1016.98 1017.15 1017.31 1017.44 1017.54 1017.61 1017.69 1017.77 1017.88 1018.03 1018.23 1018.48 1018.76 1019.08 1019.41 1019.75 1020.09 1020.42 1020.75 1021.06 1021.36 1021.64 1021.89 1022.10 1022.27 1022.38 1022.45 1022.45 1022.39 1022.28 1022.13 1021.96 1021.77 1021.58 1021.42 1021.28 1021.16
1016.76 1016.73 1016.71 1016.73 1016.81 1016.94 1017.11 1017.29 1017.46 1017.59 1017.70 1017.77 1017.83 1017.89 1017.97 1018.08 1018.25 1018.47 1018.74 1019.06 1019.40 1019.77 1020.14 1020.50 1020.85 1021.17 1021.47 1021.73 1021.97 1022.19 1022.37 1022.52 1022.64 1022.73 1022.78 1022.79 1022.77 1022.71 1022.62 1022.51 1022.39 1022.26 1022.12
1016.90 1016.89 1016.88 1016.91 1017.00 1017.13 1017.30 1017.49 1017.67 1017.82 1017.94 1018.02 1018.08 1018.13 1018.19 1018.29 1018.43 1018.63 1018.90 1019.21 1019.56 1019.93 1020.31 1020.68 1021.02 1021.32 1021.59 1021.82 1022.02 1022.19 1022.35 1022.49 1022.63 1022.77 1022.89 1023.00 1023.08 1023.14 1023.17 1023.15 1023.10 1023.02 1022.91
1017.00 1017.04 1017.07 1017.13 1017.23 1017.38 1017.56 1017.76 1017.95 1018.11 1018.24 1018.34 1018.40 1018.46 1018.52 1018.61 1018.74 1018.93 1019.18 1019.48 1019.82 1020.19 1020.55 1020.90 1021.21 1021.47 1021.69 1021.86 1021.99 1022.10 1022.21 1022.31 1022.44 1022.59 1022.75 1022.93 1023.10 1023.26 1023.39 1023.48 1023.53 1023.53 1023.47
1017.09 1017.19 1017.28 1017.38 1017.52 1017.68 1017.87 1018.07 1018.27 1018.44 1018.58 1018.68 1018.76 1018.82 1018.89 1018.98 1019.11 1019.29 1019.52 1019.80 1020.12 1020.45 1020.78 1021.09 1021.35 1021.56 1021.71 1021.82 1021.88 1021.92 1021.96 1022.02 1022.12 1022.25 1022.43 1022.65 1022.88 1023.12 1023.34 1023.53 1023.68 1023.77 1023.79
1017.17 1017.35 1017.50 1017.65 1017.82 1018.00 1018.19 1018.39 1018.57 1018.74 1018.88 1018.99 1019.07 1019.15 1019.23 1019.32 1019.45 1019.62 1019.83 1020.08 1020.36 1020.65 1020.93 1021.18 1021.39 1021.54 1021.63 1021.67 1021.67 1021.66 1021.64 1021.65 1021.71 1021.82 1022.00 1022.23 1022.50 1022.79 1023.09 1023.36 1023.59 1023.77 1023.89
1017.24 1017.49 1017.71 1017.91 1018.10 1018.29 1018.47 1018.65 1018.81 1018.96 1019.09 1019.20 1019.29 1019.38 1019.47 1019.58 1019.71 1019.86 1020.05 1020.27 1020.50 1020.73 1020.96 1021.15 1021.30 1021.40 1021.44 1021.44 1021.40 1021.34 1021.28 1021.25 1021.28 1021.37 1021.53 1021.75 1022.04 1022.36 1022.70 1023.03 1023.33 1023.58 1023.79
1017.28 1017.60 1017.87 1018.10 1018.31 1018.49 1018.66 1018.81 1018.94 1019.06 1019.17 1019.27 1019.37 1019.48 1019.59 1019.71 1019.85 1020.00 1020.16 1020.34 1020.53 1020.71 1020.87 1021.01 1021.11 1021.17 1021.18 1021.14 1021.08 1021.00 1020.93 1020.88 1020.88 1020.95 1021.09 1021.30 1021.58 1021.90 1022.26 1022.62 1022.97 1023.28 1023.54
1017.25 1017.62 1017.93 1018.19 1018.41 1018.58 1018.72 1018.83 1018.93 1019.02 1019.11 1019.21 1019.33 1019.45 1019.58 1019.73 1019.87 1020.03 1020.18 1020.33 1020.47 1020.60 1020.72 1020.81 1020.87 1020.90 1020.89 1020.84 1020.77 1020.69 1020.62 1020.57 1020.56 1020.61 1020.73 1020.91 1021.17 1021.48 1021.83 1022.20 1022.56 1022.90 1023.20
1017.12 1017.52 1017.86 1018.14 1018.35 1018.51 1018.63 1018.72 1018.79 1018.86 1018.95 1019.05 1019.18 1019.34 1019.50 1019.67 1019.84 1020.00 1020.14 1020.27 1020.38 1020.47 1020.54 1020.59 1020.62 1020.63 1020.61 1020.57 1020.51 1020.44 1020.38 1020.33 1020.32 1020.36 1020.46 1020.62 1020.84 1021.12 1021.45 1021.79 1022.15 1022.49 1022.80
1016.85 1017.28 1017.64 1017.93 1018.15 1018.31 1018.41 1018.49 1018.55 1018.63 1018.72 1018.85 1019.00 1019.18 1019.38 1019.58 1019.77 1019.94 1020.08 1020.20 1020.28 1020.34 1020.37 1020.39 1020.40 1020.39 1020.37 1020.33 1020.29 1020.24 1020.19 1020.16 1020.15 1020.18 1020.26 1020.39 1020.58 1020.82 1021.10 1021.42 1021.74 1022.06 1022.37
Thickness
5763 5762 5760 5759 5759 5758 5756 5755 5754 5752 5751 5751 5750 5750 5750 5749 5748 5748 5745 5742 5740 5739 5738 5738 5736 5735 5734 5732 5731 5729 5728 5726 5725 5724 5723 5722 5721 5720 5719 5718 5717 5715 5714
5762 5761 5759 5758 5758 5757 5756 5755 5754 5752 5751 5750 5750 5749 5749 5748 5747 5746 5746 5742 5740 5739 5738 5737 5736 5735 5733 5731 5730 5729 5727 5726 5724 5723 5722 5721 5720 5719 5718 5716 5715 5714 5713
5761 5760 5760 5759 5758 5756 5755 5754 5753 5753 5752 5751 5750 5749 5748 5747 5746 5745 5745 5743 5741 5738 5737 5736 5735 5734 5732 5730 5729 5728 5726 5725 5723 5722 5721 5720 5719 5718 5717 5715 5714 5713 5712
5761 5760 5760 5759 5757 5756 5755 5754 5754 5753 5752 5751 5749 5748 5748 5746 5746 5744 5744 5742 5741 5740 5737 5735 5734 5732 5731 5729 5728 5727 5726 5724 5723 5721 5720 5719 5718 5717 5715 5714 5713 5712 5711
5761 5761 5760 5758 5757 5756 5755 5755 5754 5752 5749 5748 5748 5747 5747 5746 5745 5744 5742 5741 5739 5738 5737 5734 5732 5731 5729 5727 5726 5725 5724 5722 5721 5720 5719 5718 5717 5715 5714 5713 5712 5711 5710
5762 5762 5760 5758 5758 5756 5754 5752 5750 5749 5749 5748 5749 5747 5746 5745 5744 5742 5741 5740 5737 5736 5735 5734 5731 5729 5727 5726 5724 5723 5722 5721 5720 5719 5718 5717 5715 5714 5713 5712 5710 5709 5708
5763 5762 5762 5758 5757 5755 5753 5752 5750 5748 5747 5747 5745 5742 5743 5743 5741 5739 5739 5738 5736 5734 5732 5731 5729 5729 5727 5724 5722 5721 5720 5719 5718 5717 5716 5715 5714 5713 5712 5710 5709 5708 5706
5763 5763 5760 5759 5757 5754 5752 5750 5749 5748 5747 5748 5744 5740 5737 5736 5736 5738 5736 5734 5733 5732 5730 5728 5726 5725 5724 5723 5722 5720 5719 5718 5716 5715 5714 5713 5712 5711 5710 5708 5707 5705 5703
5762 5760 5759 5758 5756 5756 5752 5749 5748 5746 5745 5746 5746 5742 5737 5733 5732 5733 5732 5731 5729 5728 5727 5726 5723 5722 5721 5720 5720 5718 5717 5715 5714 5713 5712 5710 5709 5708 5707 5705 5704 5702 5701
5761 5760 5758 5757 5756 5756 5752 5750 5749 5747 5744 5743 5743 5742 5741 5740 5733 5728 5727 5728 5726 5723 5723 5723 5721 5719 5717 5717 5715 5714 5713 5712 5711 5710 5709 5707 5706 5705 5704 5702 5700 5699 5697
5762 5760 5758 5757 5755 5754 5752 5750 5748 5746 5745 5743 5742 5741 5739 5737 5735 5730 5723 5722 5722 5721 5720 5717 5716 5715 5713 5712 5711 5711 5709 5708 5707 5706 5705 5704 5703 5701 5700 5698 5697 5695 5694
5763 5761 5759 5757 5755 5754 5751 5749 5747 5746 5744 5742 5741 5740 5737 5735 5732 5728 5723 5719 5717 5716 5716 5714 5712 5711 5710 5709 5707 5705 5704 5703 5703 5702 5701 5699 5698 5697 5696 5694 5692 5691 5690
5762 5760 5760 5756 5755 5753 5751 5749 5746 5745 5743 5740 5738 5738 5737 5734 5732 5728 5723 5719 5716 5715 5712 5711 5710 5708 5707 5704 5702 5700 5698 5697 5697 5696 5695 5694 5693 5692 5690 5689 5688 5687 5685
5762 5760 5757 5755 5753 5752 5750 5748 5747 5744 5742 5740 5738 5735 5733 5732 5730 5727 5723 5719 5713 5712 5709 5707 5707 5705 5703 5700 5697 5695 5693 5692 5691 5690 5689 5687 5686 5685 5684 5682 5681 5680 5679
5761 5758 5756 5754 5752 5750 5748 5746 5744 5742 5740 5738 5736 5734 5731 5730 5728 5727 5724 5721 5714 5708 5705 5704 5703 5701 5699 5696 5692 5691 5689 5686 5685 5684 5682 5680 5680 5678 5677 5676 5675 5674 5673
5758 5756 5754 5752 5750 5748 5746 5744 5742 5740 5737 5735 5732 5730 5729 5729 5726 5724 5722 5719 5717 5712 5705 5703 5700 5698 5695 5693 5688 5687 5684 5681 5679 5678 5676 5675 5673 5672 5670 5669 5669 5668 5667
5756 5754 5752 5750 5748 5745 5744 5741 5740 5737 5735 5732 5730 5728 5725 5724 5722 5721 5719 5716 5713 5710 5702 5699 5697 5694 5690 5687 5685 5682 5681 5678 5675 5672 5670 5669 5667 5666 5664 5663 5662 5661 5660
5754 5752 5750 5747 5745 5743 5741 5739 5737 5735 5732 5729 5727 5724 5722 5721 5717 5716 5714 5712 5709 5706 5701 5694 5691 5689 5685 5683 5680 5678 5677 5674 5671 5667 5664 5663 5661 5659 5658 5656 5655 5654 5653
5750 5749 5747 5744 5741 5739 5737 5735 5733 5731 5729 5726 5724 5721 5719 5716 5713 5712 5709 5708 5706 5704 5699 5694 5689 5685 5682 5679 5676 5673 5672 5669 5667 5663 5659 5657 5655 5653 5651 5650 5648 5647 5646
5747 5744 5742 5740 5737 5735 5733 5731 5728 5726 5724 5722 5719 5717 5715 5712 5709 5707 5705 5702 5701 5698 5695 5692 5687 5682 5679 5675 5672 5670 5667 5665 5663 5660 5656 5653 5649 5647 5646 5644 5642 5641 5639
5745 5741 5738 5735 5733 5731 5729 5726 5724 5722 5718 5716 5714 5712 5710 5707 5703 5702 5702 5699 5696 5693 5691 5688 5683 5679 5675 5671 5670 5668 5664 5661 5658 5656 5653 5650 5647 5644 5641 5638 5636 5635 5634
5740 5737 5734 5730 5728 5726 5720 5718 5717 5716 5714 5711 5709 5707 5705 5702 5698 5695 5692 5690 5688 5687 5685 5682 5679 5675 5670 5669 5666 5664 5661 5657 5652 5651 5648 5646 5644 5641 5638 5636 5631 5629 5628
5734 5730 5728 5725 5721 5716 5712 5710 5709 5710 5709 5706 5704 5702 5702 5700 5696 5693 5688 5684 5682 5679 5676 5676 5674 5670 5667 5664 5661 5658 5654 5652 5648 5647 5643 5640 5639 5636 5634 5630 5626 5623 5621
5729 5725 5721 5719 5715 5711 5706 5704 5703 5704 5703 5700 5698 5695 5693 5691 5689 5686 5685 5682 5679 5676 5673 5670 5668 5665 5662 5659 5656 5653 5650 5646 5643 5640 5637 5634 5633 5631 5629 5625 5620 5618 5616
5723 5719 5716 5713 5710 5705 5700 5698 5696 5699 5696 5694 5692 5689 5686 5683 5678 5676 5677 5675 5673 5670 5666 5663 5660 5658 5654 5651 5649 5648 5645 5642 5639 5637 5633 5630 5629 5626 5624 5622 5617 5612 5610
5718 5715 5711 5708 5705 5701 5694 5692 5689 5695 5691 5689 5686 5683 5677 5674 5670 5669 5670 5669 5666 5664 5662 5659 5654 5651 5649 5646 5643 5641 5641 5638 5636 5633 5630 5625 5623 5621 5618 5617 5614 5609 5605